| time (UTC) | temp F | wind direction | speed knots | gust knots | rain 1hr in | rain 24hr in | rain mn in | humidity % | barometer mb |
| 20260510090054 | 57 | 13 | 7.8 | 16.5 | 0.00 | 0.00 | 0.00 | 54 | 1015.7 |
| 20260510084554 | 57 | 32 | 7.0 | 13.9 | 0.00 | 0.00 | 0.00 | 54 | 1015.7 |
| 20260510083054 | 57 | 356 | 7.0 | 19.1 | 0.00 | 0.00 | 0.00 | 53 | 1015.8 |
| 20260510081550 | 57 | 342 | 7.8 | 15.6 | 0.00 | 0.00 | 0.00 | 52 | 1015.9 |
| 20260510080050 | 57 | 18 | 5.2 | 16.5 | 0.00 | 0.00 | 0.00 | 53 | 1016.0 |
| 20260510074549 | 57 | 57 | 7.0 | 13.0 | 0.00 | 0.00 | 0.00 | 53 | 1016.0 |
| 20260510073049 | 57 | 50 | 7.0 | 13.0 | 0.00 | 0.00 | 0.00 | 53 | 1016.2 |
| 20260510071552 | 57 | 37 | 6.1 | 13.9 | 0.00 | 0.00 | 0.00 | 51 | 1016.1 |
| 20260510070044 | 57 | 44 | 4.3 | 18.2 | 0.00 | 0.00 | 0.00 | 48 | 1016.0 |
| 20260510064543 | 56 | 59 | 7.0 | 15.6 | 0.00 | 0.00 | 0.00 | 47 | 1015.9 |
| 20260510063041 | 56 | 77 | 7.8 | 15.6 | 0.00 | 0.00 | 0.00 | 47 | 1015.9 |
| 20260510061540 | 55 | 37 | 6.1 | 12.2 | 0.00 | 0.00 | 0.00 | 49 | 1015.9 |
| 20260510060035 | 55 | 10 | 5.2 | 11.3 | 0.00 | 0.00 | 0.00 | 50 | 1015.7 |
| 20260510054534 | 55 | 56 | 4.3 | 11.3 | 0.00 | 0.00 | 0.00 | 51 | 1015.7 |
| 20260510053050 | 55 | 75 | 6.1 | 12.2 | 0.00 | 0.00 | 0.00 | 52 | 1015.7 |
| 20260510051534 | 54 | 38 | 4.3 | 10.4 | 0.00 | 0.00 | 0.00 | 53 | 1015.8 |
| 20260510050030 | 54 | 37 | 3.5 | 13.0 | 0.00 | 0.00 | 0.00 | 53 | 1016.0 |
| 20260510044528 | 53 | 63 | 4.3 | 10.4 | 0.00 | 0.00 | 0.00 | 55 | 1015.9 |
| 20260510043039 | 53 | 47 | 5.2 | 9.6 | 0.00 | 0.00 | 0.00 | 57 | 1015.8 |
| 20260510041527 | 53 | 43 | 5.2 | 13.9 | 0.00 | 0.00 | 0.00 | 57 | 1015.9 |
| 20260510040034 | 53 | 53 | 2.6 | 9.6 | 0.00 | 0.00 | 0.00 | 58 | 1015.8 |
| 20260510034520 | 53 | 41 | 4.3 | 11.3 | 0.00 | 0.00 | 0.00 | 58 | 1015.9 |
| 20260510033018 | 54 | 59 | 5.2 | 10.4 | 0.00 | 0.00 | 0.00 | 58 | 1016.0 |
| 20260510031522 | 54 | 31 | 3.5 | 9.6 | 0.00 | 0.00 | 0.00 | 58 | 1016.1 |
| 20260510030015 | 54 | 104 | 5.2 | 10.4 | 0.00 | 0.00 | 0.00 | 58 | 1016.0 |
| 20260510024651 | 54 | 44 | 2.6 | 11.3 | 0.00 | 0.00 | 0.00 | 58 | 1016.0 |
| 20260510023011 | 54 | 32 | 2.6 | 10.4 | 0.00 | 0.00 | 0.00 | 55 | 1016.0 |
| 20260510021521 | 54 | 77 | 5.2 | 12.2 | 0.00 | 0.00 | 0.00 | 56 | 1016.1 |
| 20260510020005 | 54 | 352 | 2.6 | 8.7 | 0.00 | 0.00 | 0.00 | 56 | 1016.2 |
| 20260510014506 | 54 | 58 | 4.3 | 7.8 | 0.00 | 0.00 | 0.00 | 57 | 1016.3 |
| 20260510013001 | 54 | 32 | 1.7 | 9.6 | 0.00 | 0.00 | 0.00 | 57 | 1016.4 |
| 20260510011558 | 54 | 85 | 4.3 | 8.7 | 0.00 | 0.00 | 0.00 | 58 | 1016.3 |
| 20260510010055 | 54 | 72 | 4.3 | 9.6 | 0.00 | 0.00 | 0.00 | 58 | 1016.6 |
| 20260510004556 | 55 | 49 | 3.5 | 11.3 | 0.00 | 0.00 | 0.00 | 58 | 1016.6 |
| 20260510003052 | 55 | 68 | 4.3 | 8.7 | 0.00 | 0.00 | 0.00 | 58 | 1016.6 |
| 20260510001549 | 55 | 59 | 4.3 | 8.7 | 0.00 | 0.00 | 0.00 | 58 | 1016.6 |
| 20260510000050 | 55 | 36 | 2.6 | 8.7 | 0.00 | 0.00 | 0.00 | 58 | 1016.9 |
| 20260509234543 | 55 | 20 | 1.7 | 7.8 | 0.00 | 0.00 | 0.00 | 57 | 1017.0 |
| 20260509233039 | 55 | 51 | 2.6 | 7.0 | 0.00 | 0.00 | 0.00 | 57 | 1017.1 |
| 20260509231540 | 55 | 34 | 3.5 | 8.7 | 0.00 | 0.00 | 0.00 | 56 | 1017.0 |
| 20260509230036 | 55 | 96 | 3.5 | 9.6 | 0.00 | 0.00 | 0.00 | 55 | 1017.3 |
| 20260509224533 | 55 | 39 | 2.6 | 8.7 | 0.00 | 0.00 | 0.00 | 55 | 1017.1 |
| 20260509223032 | 55 | 63 | 3.5 | 9.6 | 0.00 | 0.00 | 0.00 | 55 | 1017.0 |
| 20260509221529 | 55 | 82 | 2.6 | 8.7 | 0.00 | 0.00 | 0.00 | 55 | 1017.0 |
| 20260509220026 | 55 | 59 | 1.7 | 7.8 | 0.00 | 0.00 | 0.00 | 55 | 1017.0 |
| 20260509214525 | 55 | 1 | 2.6 | 8.7 | 0.00 | 0.00 | 0.00 | 55 | 1017.0 |
| 20260509213031 | 55 | 44 | 4.3 | 10.4 | 0.00 | 0.00 | 0.00 | 55 | 1017.0 |
| 20260509211524 | 55 | 56 | 5.2 | 9.6 | 0.00 | 0.00 | 0.00 | 55 | 1017.0 |
| 20260509210024 | 55 | 39 | 4.3 | 11.3 | 0.00 | 0.00 | 0.00 | 56 | 1017.1 |
| 20260509204523 | 55 | 33 | 4.3 | 9.6 | 0.00 | 0.00 | 0.00 | 56 | 1017.0 |
| 20260509203024 | 55 | 2 | 4.3 | 7.8 | 0.00 | 0.00 | 0.00 | 56 | 1017.1 |
| 20260509201522 | 55 | 75 | 1.7 | 7.0 | 0.00 | 0.00 | 0.00 | 57 | 1017.0 |
| 20260509200021 | 55 | 39 | 3.5 | 9.6 | 0.00 | 0.00 | 0.00 | 57 | 1016.9 |
| 20260509194521 | 56 | 20 | 1.7 | 5.2 | 0.00 | 0.00 | 0.00 | 55 | 1016.8 |
| 20260509193028 | 56 | 39 | 2.6 | 7.0 | 0.00 | 0.00 | 0.00 | 55 | 1016.8 |
| 20260509191532 | 56 | 56 | 2.6 | 10.4 | 0.00 | 0.00 | 0.00 | 55 | 1016.6 |
| 20260509190023 | 57 | 49 | 2.6 | 7.8 | 0.00 | 0.00 | 0.00 | 54 | 1016.8 |
| 20260509184532 | 58 | 23 | 2.6 | 6.1 | 0.00 | 0.00 | 0.00 | 50 | 1016.7 |
| 20260509183028 | 58 | 75 | 1.7 | 6.1 | 0.00 | 0.00 | 0.00 | 50 | 1016.7 |
| 20260509181518 | 58 | 27 | 2.6 | 9.6 | 0.00 | 0.00 | 0.00 | 52 | 1016.7 |
| 20260509180019 | 58 | 52 | 4.3 | 8.7 | 0.00 | 0.00 | 0.00 | 52 | 1016.6 |
| 20260509174522 | 58 | 352 | 4.3 | 12.2 | 0.00 | 0.00 | 0.00 | 52 | 1016.6 |
| 20260509173018 | 59 | 6 | 4.3 | 11.3 | 0.00 | 0.00 | 0.00 | 51 | 1016.5 |
| 20260509171516 | 60 | 33 | 3.5 | 11.3 | 0.00 | 0.00 | 0.00 | 50 | 1016.5 |
| 20260509170022 | 60 | 11 | 5.2 | 11.3 | 0.00 | 0.00 | 0.00 | 49 | 1016.5 |
| 20260509164515 | 61 | 51 | 6.1 | 12.2 | 0.00 | 0.00 | 0.00 | 49 | 1016.7 |
| 20260509163026 | 61 | 58 | 5.2 | 13.0 | 0.00 | 0.00 | 0.00 | 51 | 1016.8 |
| 20260509161514 | 61 | 75 | 6.1 | 13.0 | 0.00 | 0.00 | 0.00 | 49 | 1016.9 |
| 20260509160015 | 62 | 51 | 5.2 | 11.3 | 0.00 | 0.00 | 0.00 | 47 | 1016.9 |
| 20260509154512 | 62 | 3 | 6.1 | 12.2 | 0.00 | 0.00 | 0.00 | 47 | 1016.9 |
| 20260509153017 | 62 | 53 | 5.2 | 12.2 | 0.00 | 0.00 | 0.00 | 48 | 1016.7 |
| 20260509151512 | 62 | 23 | 7.0 | 11.3 | 0.00 | 0.00 | 0.00 | 49 | 1016.8 |
| 20260509150011 | 62 | 45 | 5.2 | 11.3 | 0.00 | 0.00 | 0.00 | 48 | 1016.8 |
| 20260509144509 | 62 | 353 | 6.1 | 13.9 | 0.00 | 0.00 | 0.00 | 49 | 1016.7 |
| 20260509143009 | 62 | 64 | 5.2 | 12.2 | 0.00 | 0.00 | 0.00 | 50 | 1016.9 |
| 20260509141507 | 62 | 59 | 2.6 | 12.2 | 0.00 | 0.00 | 0.00 | 51 | 1016.9 |
| 20260509140011 | 63 | 49 | 4.3 | 12.2 | 0.00 | 0.00 | 0.00 | 51 | 1017.0 |
| 20260509134506 | 63 | 19 | 5.2 | 12.2 | 0.00 | 0.00 | 0.00 | 50 | 1016.9 |
| 20260509133004 | 63 | 345 | 5.2 | 12.2 | 0.00 | 0.00 | 0.00 | 49 | 1017.1 |
| 20260509131504 | 65 | 44 | 4.3 | 10.4 | 0.00 | 0.00 | 0.00 | 47 | 1017.2 |
| 20260509130002 | 65 | 54 | 4.3 | 11.3 | 0.00 | 0.00 | 0.00 | 45 | 1017.2 |
| 20260509124601 | 65 | 49 | 4.3 | 9.6 | 0.00 | 0.00 | 0.00 | 44 | 1017.3 |
| 20260509123058 | 65 | 15 | 3.5 | 13.9 | 0.00 | 0.00 | 0.00 | 46 | 1017.4 |
| 20260509121618 | 65 | 61 | 4.3 | 11.3 | 0.00 | 0.00 | 0.00 | 47 | 1017.6 |
| 20260509120055 | 64 | 33 | 4.3 | 11.3 | 0.00 | 0.00 | 0.00 | 47 | 1017.7 |
| 20260509114559 | 63 | 39 | 5.2 | 11.3 | 0.00 | 0.00 | 0.00 | 47 | 1017.8 |
| 20260509113057 | 64 | 21 | 3.5 | 9.6 | 0.00 | 0.00 | 0.00 | 48 | 1018.0 |
| 20260509111549 | 63 | 32 | 7.0 | 11.3 | 0.00 | 0.00 | 0.00 | 47 | 1018.2 |
| 20260509110049 | 63 | 73 | 2.6 | 10.4 | 0.00 | 0.00 | 0.00 | 48 | 1018.1 |
| 20260509104550 | 63 | 66 | 4.3 | 10.4 | 0.00 | 0.00 | 0.00 | 48 | 1018.2 |
| 20260509103058 | 64 | 25 | 3.5 | 8.7 | 0.00 | 0.00 | 0.00 | 47 | 1018.2 |
| 20260509101559 | 65 | 9 | 2.6 | 11.3 | 0.00 | 0.00 | 0.00 | 43 | 1018.4 |
| 20260509100044 | 64 | 53 | 4.3 | 9.6 | 0.00 | 0.00 | 0.00 | 41 | 1018.4 |
| 20260509094549 | 64 | 127 | 4.3 | 10.4 | 0.00 | 0.00 | 0.00 | 41 | 1018.5 |
| 20260509093043 | 64 | 14 | 4.3 | 9.6 | 0.00 | 0.00 | 0.00 | 43 | 1018.5 |
| 20260509091540 | 63 | 128 | 2.6 | 8.7 | 0.00 | 0.00 | 0.00 | 48 | 1018.6 |